This is the latest recevied weather packets stored in our database for station/object EA4BHK-10. If no packets are shown the sender has not sent any weather packets the latest 10 day(s).
| Time | Temp. | Humidity | Pressure | Rain* | Wind** | Luminosity | Snow |
|---|---|---|---|---|---|---|---|
| 1777720722 | 15.56° C | 58% | 1020.1 hPa | - | - | - | - |
| 1777719821 | 15.56° C | 59% | 1020.6 hPa | - | - | - | - |
| 1777718928 | 15° C | 60% | 1020.9 hPa | - | - | - | - |
| 1777718021 | 15° C | 59% | 1021.1 hPa | - | - | - | - |
| 1777717121 | 15° C | 58% | 1021.1 hPa | - | - | - | - |
| 1777716221 | 15.56° C | 60% | 1021.1 hPa | - | - | - | - |
| 1777715321 | 15.56° C | 60% | 1020.9 hPa | - | - | - | - |
| 1777714421 | 15.56° C | 61% | 1020.7 hPa | - | - | - | - |
| 1777713522 | 15° C | 62% | 1020.8 hPa | - | - | - | - |
| 1777712625 | 15° C | 64% | 1021.2 hPa | - | - | - | - |
| 1777711721 | 14.44° C | 66% | 1021.7 hPa | - | - | - | - |
| 1777710821 | 14.44° C | 66% | 1021.6 hPa | - | - | - | - |
| 1777709928 | 14.44° C | 68% | 1021.4 hPa | - | - | - | - |
| 1777709021 | 13.89° C | 69% | 1021.4 hPa | - | - | - | - |
| 1777708121 | 13.89° C | 71% | 1021.8 hPa | - | - | - | - |
| 1777707221 | 13.33° C | 73% | 1022.4 hPa | - | - | - | - |
| 1777706313 | 13.33° C | 73% | 1022.3 hPa | - | - | - | - |
| 1777705414 | 12.78° C | 74% | 1022.3 hPa | - | - | - | - |
| 1777704513 | 12.78° C | 75% | 1022.2 hPa | - | - | - | - |
| 1777703613 | 12.78° C | 76% | 1022.4 hPa | - | - | - | - |
| 1777702713 | 12.22° C | 76% | 1022.3 hPa | - | - | - | - |
| 1777701170 | 12.22° C | 77% | 1022.4 hPa | - | - | - | - |
| 1777700270 | 12.22° C | 77% | 1022.4 hPa | - | - | - | - |
| 1777699370 | 12.22° C | 76% | 1021.9 hPa | - | - | - | - |
| 1777698470 | 12.22° C | 76% | 1022.1 hPa | - | - | - | - |
* Rain since midnight (hover to see other rain measurements)
** Current wind speed in m/s (hover to see current wind gust speed)